Retour au catalogue

STARLINK-4538

ActifCommunicationsVLEO
NORAD 53430·PAYLOAD·🇺🇸 United States

Lancé Aug 10, 2022 depuis Cape Canaveral Space Force Station

Loading…

Prochains Passages (prochaines 24 heures)

TLE

FraisSource: CelesTrak SupGP

Époque: Sep 15, 2026, 02:37 UTC

1 53430C 22097AU  26258.10951389  .00044665  00000+0  12781-2 0  2587
2 53430  53.1584 318.8061 0001107  89.7478 294.1457 15.35372367    17

Suivez STARLINK-4538 en temps réel avec AllMySat

Download on the App Store